Molokai, HI

10:14 AM HST on August 23, 2017 (GMT -1000)
Molokai

Weather History for PHMK - April, 2013

Change the Weather History Date:

Wednesday, April 17, 2013

  Actual Average Record
Temperature  
Mean Temperature 72 °F -  
Max Temperature 79 °F 79 °F 92 °F (1981)
Min Temperature 64 °F 66 °F 42 °F (2011)
Cooling Degree Days 6    
Growing Degree Days 22 (Base 50)    
Moisture  
Dew Point 64 °F    
Average Humidity 77    
Maximum Humidity 96    
Minimum Humidity 62    
Precipitation  
Precipitation 0.00 in - - ()
Sea Level Pressure  
Sea Level Pressure 30.12 in    
Wind  
Wind Speed 9 mph (NE)    
Max Wind Speed 21 mph    
Max Gust Speed 31 mph    
Visibility 10 miles    
Events      
Averages and records for this station are not official NWS values.
T = Trace of Precipitation, MM = Missing Value Source: NWS Daily Summary

Daily Weather History Graph

Daily Weather History Graph

Search for Another Location

Airport or City:

Trip Planner

Search our weather history database for the weather conditions in past years. The results will help you decide how hot, cold, wet, or windy it might be!

Date:

Astronomy

Apr. 17, 2013 Rise Set
Actual Time 6:07 AM HST 6:48 PM HST
Civil Twilight 5:44 AM HST 7:11 PM HST
Nautical Twilight 5:18 AM HST 7:37 PM HST
Astronomical Twilight 4:51 AM HST 8:05 PM HST
Moon 11:45 AM HST (4/17) 12:18 AM HST (4/17)
Length of Visible Light 13h 26m
Length of Day
12h 41m
Waxing Crescent, 44% of the Moon is Illuminated
Apr 17
Waxing Crescent
Apr 18
First Quarter
Apr 25
Full
May 2
Last Quarter
May 9
New

Hourly Weather History & Observations

Time (HST) Temp. Dew Point Humidity Pressure Visibility Wind Dir Wind Speed Gust Speed Precip Events Conditions
12:54 AM 66.0 °F 64.0 °F 93% 30.11 in 10.0 mi ENE 5.8 mph - N/A   Clear
1:54 AM 68.0 °F 66.0 °F 93% 30.09 in 10.0 mi NNE 5.8 mph - N/A   Clear
2:54 AM 68.0 °F 66.9 °F 96% 30.08 in 10.0 mi North 8.1 mph - N/A   Clear
3:54 AM 66.0 °F 63.0 °F 90% 30.08 in 10.0 mi ENE 3.5 mph - N/A   Partly Cloudy
4:54 AM 66.0 °F 64.9 °F 96% 30.08 in 10.0 mi Variable 3.5 mph - N/A   Clear
5:54 AM 64.9 °F 62.1 °F 90% 30.09 in 10.0 mi NE 10.4 mph - N/A   Partly Cloudy
6:54 AM 68.0 °F 66.9 °F 96% 30.12 in 10.0 mi ESE 4.6 mph - N/A   Partly Cloudy
7:54 AM 73.0 °F 66.9 °F 81% 30.13 in 10.0 mi ENE 9.2 mph - N/A   Partly Cloudy
8:54 AM 75.0 °F 66.9 °F 76% 30.14 in 10.0 mi NE 10.4 mph 19.6 mph N/A   Clear
9:54 AM 77.0 °F 66.0 °F 69% 30.14 in 10.0 mi Variable 4.6 mph - N/A   Partly Cloudy
10:54 AM 79.0 °F 66.9 °F 66% 30.14 in 10.0 mi NNE 9.2 mph - N/A   Scattered Clouds
11:54 AM 79.0 °F 66.0 °F 64% 30.14 in 10.0 mi NNE 12.7 mph 20.7 mph N/A   Scattered Clouds
12:54 PM 79.0 °F 64.9 °F 62% 30.13 in 10.0 mi NE 17.3 mph 26.5 mph N/A   Scattered Clouds
1:54 PM 78.1 °F 64.9 °F 64% 30.10 in 10.0 mi NE 19.6 mph 27.6 mph N/A   Partly Cloudy
2:54 PM 79.0 °F 66.0 °F 64% 30.09 in 10.0 mi NE 20.7 mph 31.1 mph N/A   Scattered Clouds
3:54 PM 77.0 °F 64.9 °F 66% 30.09 in 10.0 mi NE 19.6 mph 27.6 mph N/A   Partly Cloudy
4:54 PM 75.0 °F 64.0 °F 69% 30.09 in 10.0 mi NE 15.0 mph 29.9 mph N/A   Partly Cloudy
5:54 PM 73.0 °F 62.1 °F 68% 30.12 in 10.0 mi NE 13.8 mph 23.0 mph N/A   Partly Cloudy
6:54 PM 71.1 °F 62.1 °F 73% 30.13 in 10.0 mi NNE 12.7 mph 23.0 mph N/A   Clear
7:54 PM 70.0 °F 61.0 °F 73% 30.14 in 10.0 mi NNE 13.8 mph 20.7 mph N/A   Clear
8:54 PM 70.0 °F 61.0 °F 73% 30.16 in 10.0 mi NNE 11.5 mph 19.6 mph N/A   Clear
9:54 PM 70.0 °F 63.0 °F 78% 30.17 in 10.0 mi NNE 10.4 mph 18.4 mph N/A   Clear
10:54 PM 69.1 °F 63.0 °F 81% 30.18 in 10.0 mi NNE 9.2 mph - N/A   Clear
11:54 PM 69.1 °F 62.1 °F 78% 30.17 in 10.0 mi NNE 8.1 mph - N/A   Clear